• In Hungary
  • List of Countries
  • For 7 days
  • Water Temperature
  • Satellite Maps
  • Weather Map
  • News
  • Weather Widgets
  • user-avatar
    Login

    Hourly Weather Mihaylovka Vtoraya

    Today, 26 September, Wednesday

    Time Temperature Precipitation Wind Pressure Humidity
    00:00 +14°C° 0 mm 4 mps 752 mmHg 52%
    01:00 +14°C° 0 mm 4 mps 752 mmHg 53%
    02:00 +14°C° 0 mm 5 mps 752 mmHg 51%
    03:00 +14°C° 0 mm 5 mps 752 mmHg 50%
    04:00 +13°C° 0 mm 4 mps 752 mmHg 51%
    05:00 +14°C° 0 mm 5 mps 752 mmHg 49%
    06:00 +14°C° 0 mm 5 mps 752 mmHg 47%
    07:00 +14°C° 0 mm 5 mps 753 mmHg 45%
    08:00 +15°C° 0 mm 5 mps 753 mmHg 42%
    09:00 +16°C° 0 mm 5 mps 753 mmHg 40%
    10:00 +17°C° 0 mm 6 mps 754 mmHg 38%
    11:00 +17°C° 0.1 mm 5 mps 754 mmHg 41%
    12:00 +19°C° 0.1 mm 4 mps 754 mmHg 44%
    13:00 +19°C° 0.1 mm 4 mps 754 mmHg 46%
    14:00 +18°C° 0.7 mm 3 mps 754 mmHg 56%
    15:00 +16°C° 0.7 mm 3 mps 754 mmHg 65%
    16:00 +14°C° 0.7 mm 3 mps 754 mmHg 74%
    17:00 +14°C° 0.9 mm 3 mps 754 mmHg 79%
    18:00 +13°C° 0.9 mm 3 mps 755 mmHg 84%
    19:00 +12°C° 0.9 mm 3 mps 755 mmHg 88%
    20:00 +12°C° 0.9 mm 3 mps 755 mmHg 88%
    21:00 +12°C° 0.9 mm 3 mps 755 mmHg 88%
    22:00 +11°C° 0.9 mm 3 mps 755 mmHg 88%
    23:00 +11°C° 0.7 mm 3 mps 755 mmHg 88%

    Tomorrow, 27 September, Thursday

    Time Temperature Precipitation Wind Pressure Humidity
    00:00 +11°C° 0.7 mm 3 mps 755 mmHg 89%
    01:00 +10°C° 0.7 mm 2 mps 755 mmHg 89%
    02:00 +10°C° 0 mm 2 mps 755 mmHg 89%
    03:00 +9°C° 0 mm 2 mps 755 mmHg 89%
    04:00 +9°C° 0 mm 2 mps 755 mmHg 89%
    05:00 +9°C° 0 mm 2 mps 755 mmHg 89%
    06:00 +8°C° 0 mm 2 mps 755 mmHg 88%
    07:00 +8°C° 0 mm 2 mps 755 mmHg 87%
    08:00 +9°C° 0 mm 3 mps 755 mmHg 79%
    09:00 +10°C° 0 mm 4 mps 755 mmHg 71%
    10:00 +11°C° 0 mm 4 mps 755 mmHg 63%
    11:00 +12°C° 0 mm 5 mps 755 mmHg 58%
    12:00 +13°C° 0 mm 5 mps 754 mmHg 54%
    13:00 +14°C° 0 mm 6 mps 754 mmHg 49%
    14:00 +14°C° 0 mm 6 mps 753 mmHg 48%
    15:00 +14°C° 0 mm 7 mps 753 mmHg 47%
    16:00 +14°C° 0 mm 7 mps 752 mmHg 46%
    17:00 +13°C° 0 mm 6 mps 752 mmHg 47%
    18:00 +11°C° 0 mm 6 mps 751 mmHg 48%
    19:00 +10°C° 0 mm 5 mps 751 mmHg 49%
    20:00 +10°C° 0 mm 6 mps 751 mmHg 49%
    21:00 +10°C° 0 mm 6 mps 750 mmHg 50%
    22:00 +10°C° 0 mm 7 mps 750 mmHg 51%
    23:00 +9°C° 0.3 mm 7 mps 749 mmHg 55%

    Day after tomorrow, 28 September, Friday

    Time Temperature Precipitation Wind Pressure Humidity
    00:00 +9°C° 0.3 mm 7 mps 749 mmHg 59%
    01:00 +7°C° 0.3 mm 8 mps 748 mmHg 63%
    02:00 +7°C° 0.1 mm 8 mps 748 mmHg 66%
    03:00 +6°C° 0.1 mm 7 mps 748 mmHg 69%
    04:00 +6°C° 0.1 mm 7 mps 748 mmHg 72%
    05:00 +6°C° 0 mm 7 mps 749 mmHg 75%
    06:00 +5°C° 0 mm 6 mps 749 mmHg 79%
    07:00 +5°C° 0 mm 6 mps 749 mmHg 82%
    08:00 +7°C° 0 mm 6 mps 750 mmHg 76%
    09:00 +8°C° 0 mm 7 mps 750 mmHg 70%
    10:00 +10°C° 0 mm 7 mps 751 mmHg 64%
    11:00 +11°C° 0 mm 7 mps 751 mmHg 58%
    12:00 +12°C° 0 mm 7 mps 751 mmHg 52%
    13:00 +13°C° 0 mm 8 mps 751 mmHg 46%
    14:00 +14°C° 0 mm 7 mps 752 mmHg 45%
    15:00 +14°C° 0 mm 7 mps 752 mmHg 45%
    16:00 +14°C° 0 mm 7 mps 752 mmHg 44%
    17:00 +13°C° 0 mm 6 mps 752 mmHg 48%
    18:00 +12°C° 0 mm 5 mps 752 mmHg 51%
    19:00 +11°C° 0 mm 4 mps 752 mmHg 55%
    20:00 +10°C° 0 mm 5 mps 752 mmHg 55%
    21:00 +10°C° 0 mm 6 mps 752 mmHg 55%
    22:00 +10°C° 0 mm 6 mps 752 mmHg 55%
    23:00 +10°C° 0 mm 7 mps 751 mmHg 56%

    29 September, Saturday

    Time Temperature Precipitation Wind Pressure Humidity
    00:00 +10°C° 0 mm 7 mps 751 mmHg 57%
    01:00 +10°C° 0 mm 7 mps 751 mmHg 58%
    02:00 +10°C° 0 mm 7 mps 751 mmHg 59%
    03:00 +10°C° 0 mm 8 mps 751 mmHg 60%
    04:00 +10°C° 0 mm 8 mps 751 mmHg 62%
    05:00 +10°C° 0 mm 8 mps 751 mmHg 64%
    06:00 +10°C° 0 mm 7 mps 751 mmHg 65%
    07:00 +10°C° 0 mm 7 mps 751 mmHg 67%
    08:00 +11°C° 0 mm 7 mps 751 mmHg 64%
    09:00 +13°C° 0 mm 8 mps 751 mmHg 61%
    10:00 +15°C° 0 mm 8 mps 752 mmHg 58%
    11:00 +16°C° 0 mm 7 mps 752 mmHg 58%
    12:00 +17°C° 0 mm 7 mps 752 mmHg 57%
    13:00 +17°C° 0 mm 7 mps 752 mmHg 56%
    14:00 +17°C° 0 mm 6 mps 752 mmHg 59%
    15:00 +17°C° 0 mm 5 mps 752 mmHg 61%
    16:00 +17°C° 0 mm 4 mps 753 mmHg 64%
    17:00 +16°C° 0 mm 3 mps 753 mmHg 67%
    18:00 +16°C° 0 mm 2 mps 753 mmHg 70%
    19:00 +15°C° 0 mm 1 mps 753 mmHg 74%
    20:00 +15°C° 0 mm 1 mps 753 mmHg 75%
    21:00 +14°C° 0 mm 1 mps 753 mmHg 76%
    22:00 +13°C° 0 mm 0 mps 754 mmHg 77%
    23:00 +14°C° 0.2 mm 1 mps 753 mmHg 78%

    30 September, Sunday

    Time Temperature Precipitation Wind Pressure Humidity
    00:00 +14°C° 0.2 mm 1 mps 753 mmHg 78%
    01:00 +14°C° 0.2 mm 1 mps 753 mmHg 78%
    02:00 +13°C° 0.2 mm 1 mps 753 mmHg 79%
    03:00 +13°C° 0.2 mm 2 mps 753 mmHg 80%
    04:00 +13°C° 0.2 mm 2 mps 753 mmHg 81%
    05:00 +12°C° 0.2 mm 2 mps 753 mmHg 81%
    06:00 +11°C° 0.2 mm 3 mps 753 mmHg 80%
    07:00 +10°C° 0.2 mm 3 mps 753 mmHg 80%
    08:00 +10°C° 0.3 mm 4 mps 753 mmHg 80%
    09:00 +10°C° 0.3 mm 4 mps 753 mmHg 79%
    10:00 +10°C° 0.3 mm 4 mps 753 mmHg 79%
    11:00 +8°C° 0.5 mm 4 mps 753 mmHg 79%
    12:00 +8°C° 0.5 mm 5 mps 753 mmHg 78%
    13:00 +7°C° 0.5 mm 5 mps 753 mmHg 78%
    14:00 +7°C° 1 mm 5 mps 753 mmHg 78%
    15:00 +7°C° 1 mm 5 mps 753 mmHg 79%
    16:00 +6°C° 1 mm 5 mps 753 mmHg 79%
    17:00 +6°C° 0.8 mm 5 mps 754 mmHg 80%
    18:00 +6°C° 0.8 mm 4 mps 754 mmHg 81%
    19:00 +6°C° 0.8 mm 4 mps 754 mmHg 81%
    20:00 +6°C° 0.3 mm 4 mps 754 mmHg 80%
    21:00 +5°C° 0.3 mm 4 mps 755 mmHg 79%
    22:00 +5°C° 0.3 mm 4 mps 755 mmHg 78%
    23:00 +4°C° 0 mm 4 mps 755 mmHg 77%

    1 October, Monday

    Time Temperature Precipitation Wind Pressure Humidity
    00:00 +4°C° 0 mm 4 mps 756 mmHg 76%
    01:00 +3°C° 0 mm 4 mps 756 mmHg 75%
    02:00 +3°C° 0 mm 4 mps 756 mmHg 78%
    03:00 +3°C° 0 mm 4 mps 756 mmHg 80%
    04:00 +1°C° 0 mm 4 mps 757 mmHg 83%
    05:00 +1°C° 0 mm 4 mps 757 mmHg 83%
    06:00 +1°C° 0 mm 3 mps 757 mmHg 84%
    07:00 +1°C° 0 mm 3 mps 758 mmHg 85%
    08:00 +2°C° 0 mm 3 mps 758 mmHg 78%
    09:00 +4°C° 0 mm 4 mps 758 mmHg 70%
    10:00 +5°C° 0 mm 4 mps 759 mmHg 63%
    11:00 +6°C° 0 mm 4 mps 759 mmHg 58%
    12:00 +7°C° 0 mm 4 mps 759 mmHg 53%
    13:00 +8°C° 0 mm 4 mps 759 mmHg 48%
    14:00 +8°C° 0 mm 4 mps 759 mmHg 47%
    15:00 +8°C° 0 mm 4 mps 759 mmHg 45%
    16:00 +8°C° 0 mm 4 mps 759 mmHg 44%
    17:00 +8°C° 0 mm 3 mps 759 mmHg 48%
    18:00 +7°C° 0 mm 2 mps 759 mmHg 52%
    19:00 +7°C° 0 mm 1 mps 760 mmHg 56%
    20:00 +6°C° 0 mm 2 mps 760 mmHg 57%
    21:00 +6°C° 0 mm 2 mps 760 mmHg 58%
    22:00 +5°C° 0 mm 2 mps 760 mmHg 58%
    23:00 +5°C° 0 mm 2 mps 760 mmHg 59%
    Show more